Flight Track Log - Related Links

Times and Time Zones

All times are in EDT time to prevent confusion due to time zone crossing. See the N724AE flight status page for this flight to view local times or setup timezone preferences in your user account.

Time Position Orientation Groundspeed Altitude Reporting Facility
EDT Latitude Longitude Course Direction KTS MPH feet Rate Location/Type
Sun 02:06:08 PM 31.3597 -100.3033 67° East 299 344 9,800  Level Fort Worth Center
Sun 02:07:09 PM 31.3994 -100.1975 66° East 304 350 11,200 1,180 Climbing Fort Worth Center
Sun 02:08:10 PM 31.4436 -100.0894 64° Northeast 330 380 12,200 1,059 Climbing Fort Worth Center
Sun 02:09:00 PM 31.5903 -99.7853 67° East  Level FlightAware Approximate
Sun 02:09:08 PM 31.4547 -99.9606 84° East 378 435 13,300  Level Fort Worth Center
Sun 02:10:00 PM 31.6264 -99.6861 67° East  Level FlightAware Approximate
Sun 02:10:09 PM 31.4656 -99.8294 84° East 390 449 14,800  Level Fort Worth Center
Sun 02:11:00 PM 31.6625 -99.5869 67° East  Level FlightAware Approximate
Sun 02:11:10 PM 31.5097 -99.7014 68° East 401 461 16,300  Level Fort Worth Center
Sun 02:12:10 PM 31.5558 -99.5733 67° East 408 470 17,800 1,576 Climbing Fort Worth Center
Sun 02:13:08 PM 31.6061 -99.4453 65° Northeast 424 488 19,400 1,550 Climbing Fort Worth Center
Sun 02:14:10 PM 31.6497 -99.3169 68° East 424 488 20,900 1,475 Climbing Fort Worth Center
Sun 02:15:10 PM 31.6997 -99.1786 67° East 431 496 22,400 1,068 Climbing Fort Worth Center
Sun 02:16:08 PM 31.7497 -99.0428 67° East 443 510 23,000 303 Climbing Fort Worth Center
Sun 02:17:09 PM 31.8017 -98.8947 68° East 462 532 23,000  Level Fort Worth Center
Sun 02:18:10 PM 31.8533 -98.7489 67° East 475 547 23,000  Level Fort Worth Center
Sun 02:19:10 PM 31.9089 -98.6125 64° Northeast 475 547 23,000  Level Fort Worth Center
Sun 02:20:08 PM 31.9792 -98.4714 60° Northeast 480 552 23,000  Level Fort Worth Center
Sun 02:21:08 PM 32.0533 -98.3375 57° Northeast 485 558 23,000  Level Fort Worth Center
Sun 02:22:09 PM 32.1231 -98.2033 58° Northeast 485 558 23,000 -639 Level Fort Worth Center
Sun 02:23:10 PM 32.1886 -98.0664 60° Northeast 485 558 21,700 -2,017 Descending Fort Worth Center
Sun 02:24:08 PM 32.2478 -97.9514 59° Northeast 465 535 19,000 -3,000 Descending Fort Worth Center
Sun 02:25:08 PM 32.3150 -97.8142 60° Northeast 440 506 15,800 -2,529 Descending Fort Worth Center
Sun 02:26:09 PM 32.3633 -97.7208 58° Northeast 426 490 13,900 -2,331 Descending Fort Worth Center
Sun 02:27:09 PM 32.4303 -97.5833 60° Northeast 407 468 11,100 -1,438 Descending Fort Worth Center
Sun 02:28:10 PM 32.4742 -97.4997 58° Northeast 359 413 11,000 -50 Descending Fort Worth Center
Sun 02:29:09 PM 32.5453 -97.4158 45° Northeast 324 373 11,000  Level Fort Worth Center
Sun 02:30:08 PM 32.6036 -97.3469 45° Northeast 318 366 11,000  Level Fort Worth Center
Sun 02:31:09 PM 32.6706 -97.2653 46° Northeast 312 359 11,000  Level Fort Worth Center
Sun 02:32:09 PM 32.7206 -97.2036 46° Northeast 295 339 11,000 -50 Level Fort Worth Center
Sun 02:33:10 PM 32.7892 -97.1689 23° Northeast 273 314 10,900 -397 Descending Fort Worth Center
Sun 02:34:10 PM 32.8644 -97.1661 North 266 306 10,200 -1,210 Descending Fort Worth Center
Sun 02:35:09 PM 32.9417 -97.1658 360° North 261 300 8,500 -1,714 Descending Fort Worth Center
Sun 02:36:09 PM 33.0147 -97.1633 North 261 300 6,800 -2,033 Descending Fort Worth Center
Sun 02:37:10 PM 33.0878 -97.1631 360° North 248 285 4,400 -1,866 Descending Fort Worth Center
Sun 02:38:08 PM 33.1461 -97.1553 North 242 278 3,100 -712 Descending Fort Worth Center
Sun 02:39:08 PM 33.1669 -97.1008 65° Northeast 186 214 3,000 -100 Descending Fort Worth Center

Login

Don't have an account? Register now (free) for customized features, flight alerts, and more!